Погода Ганюшкино

Погода Ганюшкино : погода сейчас, прогноз погоды и архив. Всё, что Вы хотите узнать о погоде Ганюшкино!

Хотите узнать прогноз погоды Ганюшкино? Тогда Вам сюда: Погода Ганюшкино

Поиск расширенной информации на нашем сайте:

Другие новости

Новости СМИ2

Главная страница сайта

Новости сайта

03.07.2017

Напоминаем, что на нашем специализированном сайте Метеоцентр.Азия вы можете получить высокодетализированные автоматические прогнозы погоды по пунктам России, СНГ и мира в авиационном формате (включающие направление и скорость ветра, видимость, явления погоды, количество и форму облачности, нижнюю и верхнюю границу облачности).


Погода Ганюшкино - сегодня

Время (UTC), дата Ветер
(°,м/с) 
Видим.   Явления Облачность Т
(°С)
Тd
(°С)
f(%) Тe
(°С)
Pmin
(гПа)
dP
(гПа)
Po
(мм)
O2
(г/м3)
Тmin Tmax R s Состояние
почвы
21 17.04.18 240 (ЮЗ) 10 км    ясно 
+8.6 +4 73 +7  1022.9  0.5  769  300           
00 18.04.18 230 (ЮЗ) 10 км    ясно 
+6.8 +3 77 +5  1022.7  -0.2  769  302           
03 18.04.18 250 (З) 10 км    ясно 
+7.4 +4.1 80 +6  1023.2  0.5  770  301           
06 18.04.18 260 (З) 20000 м    ясно 
+13.8 +5.8 58 +13  1023.4  0.1  770  294  +6.3         
09 18.04.18 270 (З) 10 км    ясно 
+20.1 +4.6 36 +20  1022.4  -1.1  769  288           
12 18.04.18 280 (З) 10 км    8/0 верхняя 
[Cs]
+21.8 +6.5 37 +22  1021.1  -1.3  768  286           
15 18.04.18 200 (Ю) 10 км    10/0 верхняя 
[Cs]
+19.8 +7.1 44 +20  1020.8  -0.3  768  287    +22.1       
18 18.04.18 210 (ЮЗ) 10 км    10/0 верхняя 
[Cs]
+9.9 +5 72 +9  1020.6  -0.1  768  298    +22.1       
21 18.04.18 200 (Ю) 10 км    8/0 верхняя 
[Cs]
+8.7 +4.6 75 +8  1018.9  -1.6  766  299           
00 19.04.18 250 (З) 10 км    ясно 
+9.1 +5.6 79 +9  1016.8  -2.2  765  297           
03 19.04.18 200 (Ю) 10 км    10/0 средняя 
[Ac und]
+8.1 +5.6 84 +7  1014.4  -2.4  763  298           
06 19.04.18 190 (Ю) 10 км    8/6 1000 м верхняя 
[Cu hum|Ci]
+12 +4.3 59 +11  1013.3  -1.1  762  294  +7.9         
09 19.04.18 170 (Ю) 10 км    8/0 верхняя 
[Cs]
+14.8 +3.6 47 +14  1010.5  -2.8  760  290           
12 19.04.18 190 (Ю) 10 км    8/0 верхняя 
[Cs]
+14.5 +8.1 65 +13  1008.5  -2  759  289           
15 19.04.18 180 (Ю) 10 км    10/0 средняя 
[Ac und]
+11.8 +8 78 +10  1006.9  -1.6  757  291    +15.5       
18 19.04.18 190 (Ю) 10 км    ясно 
+10 +8 87 +9  1006.1  -0.8  757  293    +15.5       
21 19.04.18 190 (Ю) 10 км    ясно 
+9.5 +7.6 88 +9  1004.7  -1.4  756  293           
00 20.04.18 240 (ЮЗ) 10 км    10/0 средняя 
[Ac und]
+11.2 +9.2 87 +10  1003.9  -0.8  755  291           
03 20.04.18 240 (ЮЗ) 10 км    8/0 средняя, верхняя 
[Ac lent|Ci]
+10 +7.6 85 +9  1003.1  -0.8  751  290           
06 20.04.18 260 (З) 10 км    8/0 средняя 
[Ac trans]
+13.5 +5 56 +13  1002.7  -0.4  754  289  +9.3         
09 20.04.18 240 (ЮЗ) 10 км    8/8 600 м 
[Cu med, cong]
+15 +1.3 39 +14  1002.2  -0.5  754  288           
12 20.04.18 260 (З) 20000 м    8/8 600 м 
[Cu med, cong]
+16.7 +1.3 35 +16  1002  -0.3  754  286           
15 20.04.18 280 (З) 10 км    8/8 600 м 
[Cu hum]
+16.1 +6.5 53 +15  1002.4  0.4  754  286    +17       
18 20.04.18 240 (ЮЗ) 10 км    ясно 
+10.5 +4.8 68 +11  1003.6  1.3  755  292    +17       
21 20.04.18 270 (З) 10 км    ясно 
+8.2 +4.6 78 +7  1004.1  0.5  755  295           
Время (UTC), дата Ветер
(°,м/с) 
Видим.   Явления Облачность Т
(°С)
Тd
(°С)
f(%) Тe
(°С)
Pmin
(гПа)
dP
(гПа)
Po
(мм)
O2
(г/м3)
Тmin Tmax R s Состояние
почвы

Для получения пояснительной информации подведите курсор к названию столбца.

ПОГОДА Ганюшкино - архив

Всё, что Вы хотите узнать о погоде Ганюшкино - удобно и подробно!

Выберите нужную дату (начиная с 1 января 2015* года) и нажмите кнопку "Найти".
Будут отображены архивные сводки погоды по пункту Ганюшкино, начиная с указанной даты.


Отображать данные в формате CSV (для использования в таблицах Excel)


Внимание! Наш архив погоды предназначен исключительно для личного некоммерческого использования в познавательных целях. Если Вам необходимы официальные справки о состоянии погоды (для производственных, юридических, коммерческих и т.п. целей), обращайтесь в органы Росгидромета.

*Примечание: данная дата относится к архиву по метеостанциям СССР (Россия, СНГ, Балтия).
Архив по метеостанциям Зарубежной Европы и Азии (кроме Китая) хранится 10 дней, по другим регионам земного шара (Китай, Африка, Америка, Австралия, Океания) - 1 день.

Ганюшкино - район местоположения метеостанции


Название, широта, долгота, высота метеостанции:
Ганюшкино 46.6°ш. 49.3°д. -23 м над ур. моря [Казахстан]

Дополнительная информация

В oтличие oт бoльшинства пoгoдных сайтoв мы публикуем пoдрoбную метеoинфoрмацию в детальнoм прoфессиoнальнoм фoрмате.

Характеристики температуры и влажнoсти вoздуха измеряются на высoте 2 м в тени вдали oт зданий и деревьев.
Скoрoсть ветра измеряется на высoте 10 м (на урoвне рoста челoвека скoрoсть ветра ниже в 1.5-2 раза). Если метеoстанция нахoдится в гoрoде или в лесу, тo скoрoсть ветра занижена на 2-4 м/с пo сравнению с oткрытым местoм. Скoрoсть ветра над акватoриями крупных рек и oзёр, а также на вершинах хoлмoв на 2-5 м/с выше, чем в oбычных услoвиях.
Атмoсфернoе давление в разных тoчках местнoсти мoжет значительнo oтличаться oт давления на метеoстанции, в зависимoсти oт услoвий рельефа (при пoдъёме на 10 м давление пoнижается примернo на 1 мм рт.ст.).